N4DWK Weather Reports


time (UTC)temp
F
wind
direction
speed
knots
gust
knots
rain 1hr
in
rain 24hr
in
rain mn
in
humidity
%
barometer
mb
20260505102003 60 222 2.6 4.3 0.00 0.00 0.00 76 1013.8
20260505101503 60 203 2.6 4.3 0.00 0.00 0.00 76 1013.8
20260505101003 60 215 1.7 4.3 0.00 0.00 0.00 76 1013.8
20260505100503 60 224 2.6 5.2 0.00 0.00 0.00 76 1013.8
20260505100003 60 229 2.6 5.2 0.00 0.00 0.00 75 1013.8
20260505095503 61 221 2.6 4.3 0.00 0.00 0.00 75 1013.8
20260505095003 61 206 2.6 4.3 0.00 0.00 0.00 75 1013.8
20260505094503 61 216 1.7 6.1 0.00 0.00 0.00 74 1013.8
20260505094003 61 217 2.6 6.1 0.00 0.00 0.00 74 1013.8
20260505093503 61 228 1.7 6.1 0.00 0.00 0.00 74 1013.7
20260505093003 61 223 1.7 6.1 0.00 0.00 0.00 74 1013.7
20260505092503 61 225 2.6 6.1 0.00 0.00 0.00 73 1013.7
20260505092003 61 217 2.6 5.2 0.00 0.00 0.00 73 1013.7
20260505091503 62 221 2.6 7.0 0.00 0.00 0.00 73 1013.6
20260505091003 62 217 2.6 7.0 0.00 0.00 0.00 72 1013.6
20260505090502 62 228 1.7 4.3 0.00 0.00 0.00 72 1013.6
20260505090002 62 229 2.6 6.1 0.00 0.00 0.00 72 1013.6
20260505085503 62 209 2.6 6.1 0.00 0.00 0.00 72 1013.6
20260505085005 62 225 2.6 6.1 0.00 0.00 0.00 72 1013.5
20260505084502 62 228 2.6 5.2 0.00 0.00 0.00 72 1013.6
20260505084003 62 222 3.5 5.2 0.00 0.00 0.00 72 1013.6
20260505083503 62 215 1.7 2.6 0.00 0.00 0.00 71 1013.6
20260505083003 62 229 1.7 6.1 0.00 0.00 0.00 71 1013.6
20260505082503 63 232 2.6 6.1 0.00 0.00 0.00 71 1013.5
20260505082003 63 226 3.5 6.1 0.00 0.00 0.00 71 1013.5
20260505081503 63 225 2.6 8.7 0.00 0.00 0.00 71 1013.5
20260505081003 63 217 3.5 8.7 0.00 0.00 0.00 70 1013.5
20260505080503 63 221 2.6 6.1 0.00 0.00 0.00 70 1013.4
20260505080003 63 206 2.6 6.1 0.00 0.00 0.00 70 1013.4
20260505075503 63 237 2.6 6.1 0.00 0.00 0.00 70 1013.5
20260505075003 63 220 2.6 6.1 0.00 0.00 0.00 69 1013.5
20260505074502 63 199 1.7 6.1 0.00 0.00 0.00 69 1013.4
20260505074003 63 230 3.5 6.1 0.00 0.00 0.00 69 1013.4
20260505073504 63 214 2.6 6.1 0.00 0.00 0.00 69 1013.4
20260505073003 63 221 2.6 6.1 0.00 0.00 0.00 68 1013.3
20260505072503 63 231 2.6 7.0 0.00 0.00 0.00 68 1013.2
20260505072003 63 216 4.3 7.0 0.00 0.00 0.00 68 1013.2
20260505071503 63 213 2.6 6.1 0.00 0.00 0.00 67 1013.2
20260505071003 63 223 1.7 7.8 0.00 0.00 0.00 67 1013.2
20260505070503 63 240 2.6 7.8 0.00 0.00 0.00 67 1013.2
20260505070003 63 211 1.7 5.2 0.00 0.00 0.00 66 1013.1
20260505065503 63 205 2.6 5.2 0.00 0.00 0.00 66 1013.1
20260505065003 63 216 2.6 7.0 0.00 0.00 0.00 65 1013.1
20260505064502 64 220 2.6 7.0 0.00 0.00 0.00 65 1013.2
20260505064004 64 222 4.3 7.0 0.00 0.00 0.00 64 1013.2
20260505063503 64 222 2.6 6.1 0.00 0.00 0.00 64 1013.1
20260505063003 64 218 2.6 6.1 0.00 0.00 0.00 64 1013.0
20260505062503 64 234 2.6 10.4 0.00 0.00 0.00 63 1013.1
20260505062003 64 223 4.3 10.4 0.00 0.00 0.00 63 1013.0
20260505061502 64 233 4.3 7.0 0.00 0.00 0.00 63 1013.1
20260505061002 64 219 3.5 6.1 0.00 0.00 0.00 62 1013.1
20260505060503 64 229 2.6 5.2 0.00 0.00 0.00 62 1013.1
20260505060003 64 216 1.7 4.3 0.00 0.00 0.00 62 1013.1
20260505055503 64 215 1.7 4.3 0.00 0.00 0.00 61 1013.2
20260505055003 64 209 1.7 4.3 0.00 0.00 0.00 61 1013.2
20260505054503 64 215 2.6 4.3 0.00 0.00 0.00 60 1013.2
20260505054003 65 220 1.7 4.3 0.00 0.00 0.00 60 1013.1
20260505053503 65 225 1.7 7.0 0.00 0.00 0.00 59 1013.1
20260505053002 65 222 1.7 7.0 0.00 0.00 0.00 59 1013.2
20260505052503 65 204 1.7 5.2 0.00 0.00 0.00 58 1013.2
20260505052004 66 206 1.7 5.2 0.00 0.00 0.00 58 1013.2
20260505051503 66 230 2.6 5.2 0.00 0.00 0.00 57 1013.2
20260505051002 66 221 1.7 6.1 0.00 0.00 0.00 57 1013.1
20260505050503 66 224 1.7 6.1 0.00 0.00 0.00 56 1013.0
20260505041503 67 226 2.6 5.2 0.00 0.00 0.00 55 1012.7
20260505041002 67 203 1.7 2.6 0.00 0.00 0.00 55 1012.6
20260505040502 67 233 0.9 2.6 0.00 0.00 0.00 55 1012.6
20260505040002 67 233 1.7 2.6 0.00 0.00 0.00 55 1012.5
20260505035502 67 233 1.7 2.6 0.00 0.00 0.00 55 1012.5
20260505035002 67 233 0.9 2.6 0.00 0.00 0.00 55 1012.5
20260505034503 67 235 1.7 2.6 0.00 0.00 0.00 55 1012.5
20260505034003 66 209 1.7 2.6 0.00 0.00 0.00 55 1012.5
20260505033502 67 209 1.7 2.6 0.00 0.00 0.00 55 1012.5
20260505033003 67 209 1.7 2.6 0.00 0.00 0.00 55 1012.6
20260505032502 67 209 0.9 2.6 0.00 0.00 0.00 55 1012.6
20260505032002 67 209 1.7 2.6 0.00 0.00 0.00 55 1012.6
20260505031502 67 203 0.9 2.6 0.00 0.00 0.00 55 1012.6
20260505031003 67 202 0.9 2.6 0.00 0.00 0.00 55 1012.6
20260505030503 67 202 1.7 2.6 0.00 0.00 0.00 54 1012.6
20260505030002 68 202 0.9 2.6 0.00 0.00 0.00 54 1012.6
20260505025502 68 202 1.7 2.6 0.00 0.00 0.00 53 1012.7
20260505025003 68 202 1.7 2.6 0.00 0.00 0.00 53 1012.6
20260505024502 68 202 0.9 2.6 0.00 0.00 0.00 53 1012.7
20260505024003 68 202 0.9 2.6 0.00 0.00 0.00 53 1012.7
20260505023502 68 217 1.7 2.6 0.00 0.00 0.00 53 1012.7
20260505023003 69 217 1.7 2.6 0.00 0.00 0.00 52 1012.7
20260505022503 69 201 1.7 2.6 0.00 0.00 0.00 52 1012.6
20260505022003 69 215 1.7 2.6 0.00 0.00 0.00 52 1012.5
20260505021502 69 215 0.9 2.6 0.00 0.00 0.00 52 1012.5
20260505021002 69 215 1.7 2.6 0.00 0.00 0.00 52 1012.5
20260505020502 69 203 1.7 2.6 0.00 0.00 0.00 52 1012.5
20260505020002 69 215 1.7 2.6 0.00 0.00 0.00 51 1012.5
20260505015503 69 215 1.7 2.6 0.00 0.00 0.00 51 1012.5
20260505015002 70 215 1.7 2.6 0.00 0.00 0.00 51 1012.5
20260505014503 70 217 1.7 2.6 0.00 0.00 0.00 51 1012.4
20260505014002 70 217 1.7 2.6 0.00 0.00 0.00 51 1012.4
20260505013502 70 196 1.7 2.6 0.00 0.00 0.00 51 1012.3
20260505013003 70 209 1.7 2.6 0.00 0.00 0.00 51 1012.2
20260505012502 70 209 0.9 2.6 0.00 0.00 0.00 50 1012.2
20260505012003 70 209 1.7 2.6 0.00 0.00 0.00 50 1012.1
20260505011502 70 209 1.7 2.6 0.00 0.00 0.00 50 1012.1
20260505011002 70 213 1.7 2.6 0.00 0.00 0.00 50 1012.0
20260505010504 70 213 1.7 2.6 0.00 0.00 0.00 50 1011.9
20260505010002 71 213 0.9 2.6 0.00 0.00 0.00 49 1011.9
20260505005502 71 213 0.0 0.9 0.00 0.00 0.00 49 1011.8
20260505005004 71 213 0.0 1.7 0.00 0.00 0.00 49 1011.8
20260505004503 71 213 0.9 1.7 0.00 0.00 0.00 48 1011.7
20260505004003 71 213 0.9 1.7 0.00 0.00 0.00 48 1011.8
20260505003502 72 213 0.0 2.6 0.00 0.00 0.00 48 1011.7
20260505003003 72 213 0.9 2.6 0.00 0.00 0.00 48 1011.8
20260505002502 72 213 1.7 2.6 0.00 0.00 0.00 47 1011.8
20260505002002 72 213 0.9 2.6 0.00 0.00 0.00 47 1011.8
20260505001503 72 213 0.9 2.6 0.00 0.00 0.00 47 1011.7
20260505001003 72 213 0.9 2.6 0.00 0.00 0.00 47 1011.8
20260505000502 73 214 0.9 2.6 0.00 0.00 0.00 46 1012.0
20260505000003 73 214 1.7 2.6 0.00 0.00 0.00 45 1012.1
20260504235503 73 215 1.7 4.3 0.00 0.00 0.00 45 1012.0
20260504235003 73 215 1.7 4.3 0.00 0.00 0.00 44 1012.0
20260504234502 73 217 1.7 4.3 0.00 0.00 0.00 44 1011.9
20260504234002 73 222 0.9 2.6 0.00 0.00 0.00 44 1011.8
20260504233503 74 222 1.7 2.6 0.00 0.00 0.00 43 1011.8
20260504233002 74 222 1.7 2.6 0.00 0.00 0.00 43 1011.8
20260504232502 74 221 1.7 4.3 0.00 0.00 0.00 42 1011.8
20260504232003 74 213 1.7 4.3 0.00 0.00 0.00 42 1011.7
20260504231502 75 213 1.7 4.3 0.00 0.00 0.00 42 1011.6
20260504231004 75 211 0.9 5.2 0.00 0.00 0.00 41 1011.5
20260504230502 75 187 2.6 5.2 0.00 0.00 0.00 40 1011.5
20260504230002 75 233 1.7 6.1 0.00 0.00 0.00 40 1011.5
20260504225506 76 219 3.5 6.1 0.00 0.00 0.00 39 1011.6
20260504225002 76 223 2.6 5.2 0.00 0.00 0.00 39 1011.6
20260504224507 76 202 2.6 7.8 0.00 0.00 0.00 39 1011.7
20260504224003 76 212 2.6 7.8 0.00 0.00 0.00 39 1011.8
20260504223504 77 330 4.3 7.8 0.00 0.00 0.00 39 1011.7
20260504222510 77 223 2.6 7.8 0.00 0.00 0.00 39 1011.7
20260504222010 77 227 4.3 7.8 0.00 0.00 0.00 38 1011.7
20260504221509 78 216 4.3 7.0 0.00 0.00 0.00 37 1011.6
20260504221010 78 219 2.6 7.8 0.00 0.00 0.00 37 1011.6
20260504220510 78 218 2.6 8.7 0.00 0.00 0.00 38 1011.6
20260504220010 78 221 2.6 8.7 0.00 0.00 0.00 38 1011.6
20260504215510 78 221 2.6 8.7 0.00 0.00 0.00 38 1011.7
20260504215010 78 218 3.5 7.8 0.00 0.00 0.00 36 1011.7
20260504214510 78 183 2.6 10.4 0.00 0.00 0.00 37 1011.7
20260504214010 78 195 1.7 10.4 0.00 0.00 0.00 37 1011.6
20260504213509 79 222 5.2 10.4 0.00 0.00 0.00 36 1011.6
20260504213010 79 224 2.6 7.8 0.00 0.00 0.00 36 1011.5
20260504212510 79 233 2.6 7.8 0.00 0.00 0.00 37 1011.5
20260504212011 79 233 2.6 7.0 0.00 0.00 0.00 37 1011.6
20260504211510 79 230 2.6 10.4 0.00 0.00 0.00 36 1011.6
20260504211009 79 223 5.2 10.4 0.00 0.00 0.00 36 1011.7
20260504210510 79 156 3.5 7.8 0.00 0.00 0.00 37 1011.7
20260504210010 79 241 2.6 8.7 0.00 0.00 0.00 35 1011.6
20260504205510 80 225 4.3 8.7 0.00 0.00 0.00 35 1011.6
20260504205009 81 218 1.7 5.2 0.00 0.00 0.00 35 1011.6
20260504204510 80 223 2.6 5.2 0.00 0.00 0.00 36 1011.6
20260504204010 80 219 2.6 8.7 0.00 0.00 0.00 36 1011.7
20260504203509 79 227 2.6 11.3 0.00 0.00 0.00 37 1011.8
20260504203009 79 226 5.2 11.3 0.00 0.00 0.00 36 1011.8
20260504202511 79 238 1.7 10.4 0.00 0.00 0.00 37 1011.8
20260504202010 78 209 5.2 10.4 0.00 0.00 0.00 36 1011.9
20260504201510 79 221 4.3 8.7 0.00 0.00 0.00 36 1012.0
20260504201010 80 214 3.5 6.1 0.00 0.00 0.00 35 1012.0
20260504200510 79 214 3.5 6.1 0.00 0.00 0.00 37 1012.1
20260504200010 78 221 1.7 6.1 0.00 0.00 0.00 37 1012.1
20260504195510 79 224 2.6 6.1 0.00 0.00 0.00 35 1012.1
20260504195009 80 215 1.7 7.8 0.00 0.00 0.00 38 1012.1
20260504194510 78 195 2.6 7.8 0.00 0.00 0.00 37 1012.2
20260504194010 79 226 2.6 7.8 0.00 0.00 0.00 37 1012.3
20260504193509 78 223 0.9 8.7 0.00 0.00 0.00 37 1012.4
20260504193010 77 289 2.6 8.7 0.00 0.00 0.00 38 1012.5
20260504192510 78 215 2.6 8.7 0.00 0.00 0.00 36 1012.5
20260504192009 78 231 1.7 5.2 0.00 0.00 0.00 37 1012.7
20260504191509 77 229 1.7 6.1 0.00 0.00 0.00 37 1012.8
20260504191010 77 229 2.6 6.1 0.00 0.00 0.00 38 1012.9
20260504190509 77 217 1.7 5.2 0.00 0.00 0.00 38 1012.9
20260504190010 76 226 1.7 7.0 0.00 0.00 0.00 38 1013.1
20260504185510 75 233 4.3 7.0 0.00 0.00 0.00 38 1013.2
20260504185009 74 228 2.6 6.1 0.00 0.00 0.00 39 1013.3
20260504184511 75 233 4.3 6.1 0.00 0.00 0.00 39 1013.4
20260504184010 76 229 2.6 7.8 0.00 0.00 0.00 38 1013.3
20260504183509 75 209 2.6 7.8 0.00 0.00 0.00 39 1013.3
20260504183010 74 219 3.5 6.1 0.00 0.00 0.00 38 1013.3
20260504182510 74 222 2.6 7.8 0.00 0.00 0.00 39 1013.4
20260504182010 74 211 3.5 7.8 0.00 0.00 0.00 37 1013.5
20260504181509 75 225 5.2 7.0 0.00 0.00 0.00 37 1013.5
20260504181010 74 224 1.7 6.1 0.00 0.00 0.00 39 1013.6
20260504180509 74 224 3.5 6.1 0.00 0.00 0.00 39 1013.7
20260504180009 73 220 1.7 7.8 0.00 0.00 0.00 38 1013.7
20260504175509 73 225 2.6 7.8 0.00 0.00 0.00 37 1013.8
20260504175009 73 207 3.5 7.8 0.00 0.00 0.00 38 1013.7
20260504174509 74 247 4.3 7.8 0.00 0.00 0.00 38 1013.8
20260504174010 74 236 3.5 6.1 0.00 0.00 0.00 39 1013.8
20260504173509 73 216 2.6 4.3 0.00 0.00 0.00 39 1013.8
20260504173009 73 235 2.6 6.1 0.00 0.00 0.00 39 1013.9
20260504172509 72 217 1.7 6.1 0.00 0.00 0.00 40 1014.0
20260504172010 72 223 2.6 7.0 0.00 0.00 0.00 39 1014.1
20260504171510 73 229 3.5 8.7 0.00 0.00 0.00 38 1014.2
20260504171009 73 316 1.7 8.7 0.00 0.00 0.00 38 1014.2
20260504170509 74 209 0.9 8.7 0.00 0.00 0.00 39 1014.3
20260504151009 67 223 1.7 6.1 0.00 0.00 0.00 45 1015.4
20260504150509 66 229 2.6 6.1 0.00 0.00 0.00 46 1015.4
20260504141010 62 220 1.7 4.3 0.00 0.00 0.00 54 1015.8
20260504140509 62 318 1.7 4.3 0.00 0.00 0.00 54 1015.8
20260504130509 58 210 2.6 5.2 0.00 0.00 0.00 58 1016.2
20260504110509 52 213 0.0 1.7 0.00 0.00 0.00 63 1016.6